| time (UTC) | temp C | wind direction | speed KPH | gust KPH | rain 1hr cm | rain 24hr cm | rain mn cm | humidity % | barometer mb |
| 20260506081456 | 9 | 251 | 1.6 | 11.3 | 0.00 | 0.28 | 0.00 | 58 | 1022.8 |
| 20260506080956 | 10 | 311 | 1.6 | 19.3 | 0.00 | 0.28 | 0.00 | 58 | 1022.8 |
| 20260506080457 | 10 | 307 | 6.4 | 17.7 | 0.00 | 0.28 | 0.00 | 58 | 1022.8 |
| 20260506072956 | 10 | 294 | 6.4 | 16.1 | 0.00 | 0.28 | 0.00 | 57 | 1022.7 |
| 20260506072456 | 10 | 287 | 8.0 | 16.1 | 0.00 | 0.28 | 0.00 | 57 | 1022.6 |
| 20260506071956 | 10 | 225 | 8.0 | 19.3 | 0.00 | 0.28 | 0.00 | 57 | 1022.6 |
| 20260506071457 | 10 | 257 | 8.0 | 32.2 | 0.00 | 0.28 | 0.00 | 57 | 1022.7 |
| 20260506070957 | 10 | 289 | 1.6 | 17.7 | 0.00 | 0.28 | 0.00 | 57 | 1022.6 |
| 20260506070456 | 10 | 281 | 9.7 | 14.5 | 0.00 | 0.28 | 0.00 | 57 | 1022.5 |
| 20260506062459 | 10 | 249 | 11.3 | 12.9 | 0.00 | 0.28 | 0.28 | 55 | 1022.3 |
| 20260506061958 | 10 | 161 | 6.4 | 12.9 | 0.00 | 0.28 | 0.28 | 55 | 1022.3 |
| 20260506060958 | 10 | 231 | 3.2 | 17.7 | 0.00 | 0.28 | 0.28 | 54 | 1022.4 |
| 20260506060500 | 10 | 296 | 8.0 | 17.7 | 0.00 | 0.28 | 0.28 | 54 | 1022.5 |
| 20260506050458 | 11 | 252 | 6.4 | 20.9 | 0.00 | 0.28 | 0.28 | 50 | 1022.5 |
| 20260506044458 | 11 | 252 | 4.8 | 12.9 | 0.00 | 0.28 | 0.28 | 48 | 1022.5 |
| 20260506043958 | 11 | 281 | 4.8 | 17.7 | 0.00 | 0.28 | 0.28 | 47 | 1022.3 |
| 20260506043501 | 11 | 317 | 9.7 | 17.7 | 0.00 | 0.28 | 0.28 | 47 | 1022.3 |
| 20260506042959 | 12 | 280 | 3.2 | 17.7 | 0.00 | 0.28 | 0.28 | 46 | 1022.3 |
| 20260506042459 | 12 | 287 | 3.2 | 12.9 | 0.00 | 0.28 | 0.28 | 46 | 1022.2 |
| 20260506042002 | 12 | 265 | 3.2 | 14.5 | 0.00 | 0.28 | 0.28 | 46 | 1022.2 |
| 20260506041504 | 12 | 328 | 3.2 | 14.5 | 0.00 | 0.28 | 0.28 | 45 | 1022.1 |
| 20260506041002 | 12 | 229 | 3.2 | 11.3 | 0.00 | 0.28 | 0.28 | 46 | 1022.1 |
| 20260506040502 | 12 | 320 | 1.6 | 11.3 | 0.00 | 0.28 | 0.28 | 44 | 1022.1 |
| 20260506040004 | 12 | 333 | 8.0 | 19.3 | 0.00 | 0.28 | 0.28 | 44 | 1021.9 |
| 20260506035502 | 12 | 282 | 4.8 | 19.3 | 0.00 | 0.28 | 0.28 | 44 | 1022.0 |
| 20260506035003 | 12 | 276 | 6.4 | 20.9 | 0.00 | 0.28 | 0.28 | 43 | 1021.9 |
| 20260506034502 | 12 | 306 | 17.7 | 20.9 | 0.00 | 0.28 | 0.28 | 43 | 1021.7 |
| 20260506034002 | 13 | 328 | 6.4 | 20.9 | 0.00 | 0.28 | 0.28 | 43 | 1021.6 |
| 20260506033502 | 13 | 337 | 8.0 | 17.7 | 0.00 | 0.28 | 0.28 | 42 | 1021.6 |
| 20260506032503 | 13 | 5 | 6.4 | 16.1 | 0.00 | 0.28 | 0.28 | 43 | 1021.2 |
| 20260506032002 | 13 | 321 | 11.3 | 20.9 | 0.00 | 0.28 | 0.28 | 43 | 1021.0 |
| 20260506031502 | 13 | 330 | 8.0 | 19.3 | 0.00 | 0.28 | 0.28 | 43 | 1021.1 |
| 20260506031002 | 13 | 355 | 3.2 | 16.1 | 0.00 | 0.28 | 0.28 | 43 | 1020.8 |
| 20260506030502 | 14 | 11 | 4.8 | 16.1 | 0.00 | 0.28 | 0.28 | 43 | 1020.7 |
| 20260506030006 | 15 | 21 | 9.7 | 24.1 | 0.00 | 0.28 | 0.28 | 40 | 1020.6 |
| 20260506025502 | 15 | 207 | 0.0 | 24.1 | 0.00 | 0.28 | 0.28 | 38 | 1020.5 |
| 20260506024008 | 15 | 235 | 8.0 | 14.5 | 0.00 | 0.28 | 0.28 | 38 | 1020.1 |
| 20260506023520 | 15 | 184 | 4.8 | 11.3 | 0.00 | 0.28 | 0.28 | 39 | 1020.0 |
| 20260506023002 | 15 | 252 | 4.8 | 11.3 | 0.00 | 0.28 | 0.28 | 40 | 1019.9 |
| 20260506022502 | 15 | 223 | 6.4 | 22.5 | 0.00 | 0.28 | 0.28 | 38 | 1019.8 |
| 20260506022002 | 15 | 203 | 3.2 | 22.5 | 0.00 | 0.28 | 0.28 | 38 | 1019.7 |
| 20260506021502 | 15 | 134 | 4.8 | 20.9 | 0.00 | 0.28 | 0.28 | 38 | 1019.6 |
| 20260506021004 | 15 | 290 | 9.7 | 20.9 | 0.00 | 0.28 | 0.28 | 37 | 1019.6 |
| 20260506020502 | 16 | 269 | 3.2 | 16.1 | 0.00 | 0.28 | 0.28 | 38 | 1019.5 |
| 20260506020005 | 16 | 268 | 9.7 | 16.1 | 0.00 | 0.28 | 0.28 | 40 | 1019.4 |
| 20260506015002 | 16 | 297 | 1.6 | 20.9 | 0.00 | 0.28 | 0.28 | 40 | 1019.2 |
| 20260506014502 | 16 | 248 | 9.7 | 20.9 | 0.00 | 0.28 | 0.28 | 40 | 1019.0 |
| 20260506014003 | 16 | 175 | 8.0 | 20.9 | 0.00 | 0.28 | 0.28 | 40 | 1019.0 |
| 20260506013002 | 16 | 269 | 8.0 | 25.7 | 0.00 | 0.28 | 0.28 | 40 | 1019.0 |
| 20260506012502 | 16 | 173 | 19.3 | 25.7 | 0.00 | 0.28 | 0.28 | 41 | 1019.0 |
| 20260506011502 | 16 | 221 | 9.7 | 24.1 | 0.00 | 0.28 | 0.28 | 40 | 1018.9 |
| 20260506011002 | 16 | 177 | 9.7 | 25.7 | 0.00 | 0.28 | 0.28 | 41 | 1018.9 |
| 20260506010502 | 17 | 161 | 12.9 | 25.7 | 0.00 | 0.28 | 0.28 | 40 | 1018.9 |
| 20260506010005 | 17 | 189 | 19.3 | 19.3 | 0.00 | 0.28 | 0.28 | 39 | 1018.7 |
| 20260506005502 | 17 | 196 | 9.7 | 17.7 | 0.00 | 0.28 | 0.28 | 40 | 1018.7 |
| 20260506005002 | 17 | 156 | 4.8 | 16.1 | 0.00 | 0.28 | 0.28 | 39 | 1018.7 |
| 20260506004502 | 16 | 225 | 8.0 | 30.6 | 0.00 | 0.28 | 0.28 | 39 | 1018.6 |
| 20260506004002 | 16 | 207 | 12.9 | 37.0 | 0.00 | 0.28 | 0.28 | 41 | 1018.7 |
| 20260506003502 | 16 | 235 | 14.5 | 37.0 | 0.00 | 0.28 | 0.28 | 41 | 1018.7 |
| 20260506003002 | 16 | 222 | 11.3 | 30.6 | 0.00 | 0.28 | 0.28 | 40 | 1018.6 |
| 20260506001502 | 17 | 196 | 3.2 | 29.0 | 0.00 | 0.28 | 0.28 | 39 | 1018.6 |
| 20260506001002 | 18 | 223 | 6.4 | 29.0 | 0.00 | 0.28 | 0.28 | 33 | 1018.6 |
| 20260506000501 | 18 | 175 | 3.2 | 25.7 | 0.00 | 0.28 | 0.28 | 32 | 1018.2 |
| 20260505235011 | 18 | 202 | 8.0 | 29.0 | 0.00 | 0.28 | 0.28 | 33 | 1018.5 |
| 20260505234511 | 18 | 259 | 6.4 | 33.8 | 0.00 | 0.28 | 0.28 | 30 | 1018.5 |
| 20260505234035 | 19 | 232 | 14.5 | 33.8 | 0.00 | 0.28 | 0.28 | 29 | 1018.4 |
| 20260505233516 | 19 | 191 | 8.0 | 22.5 | 0.00 | 0.28 | 0.28 | 32 | 1018.5 |
| 20260505232518 | 18 | 290 | 12.9 | 33.8 | 0.00 | 0.28 | 0.28 | 33 | 1018.5 |
| 20260505232029 | 18 | 240 | 11.3 | 45.1 | 0.00 | 0.28 | 0.28 | 30 | 1018.3 |
| 20260505231524 | 19 | 184 | 12.9 | 40.2 | 0.00 | 0.28 | 0.28 | 30 | 1018.3 |
| 20260505230004 | 18 | 234 | 17.7 | 29.0 | 0.00 | 0.28 | 0.28 | 34 | 1018.5 |
| 20260505225502 | 18 | 234 | 12.9 | 29.0 | 0.00 | 0.28 | 0.28 | 33 | 1018.5 |
| 20260505225004 | 18 | 195 | 14.5 | 29.0 | 0.00 | 0.28 | 0.28 | 33 | 1018.5 |
| 20260505224502 | 19 | 202 | 16.1 | 17.7 | 0.00 | 0.28 | 0.28 | 33 | 1018.6 |
| 20260505224003 | 18 | 250 | 9.7 | 29.0 | 0.00 | 0.28 | 0.28 | 34 | 1018.7 |
| 20260505223502 | 18 | 198 | 6.4 | 29.0 | 0.00 | 0.28 | 0.28 | 34 | 1019.0 |
| 20260505222502 | 18 | 188 | 1.6 | 20.9 | 0.00 | 0.28 | 0.28 | 35 | 1018.8 |
| 20260505222002 | 18 | 309 | 3.2 | 45.1 | 0.00 | 0.28 | 0.28 | 36 | 1018.7 |
| 20260505221506 | 18 | 173 | 11.3 | 45.1 | 0.00 | 0.28 | 0.28 | 35 | 1018.9 |
| 20260505221002 | 18 | 190 | 8.0 | 29.0 | 0.00 | 0.28 | 0.28 | 35 | 1018.9 |
| 20260505220004 | 19 | 162 | 11.3 | 19.3 | 0.00 | 0.28 | 0.28 | 36 | 1019.0 |
| 20260505215502 | 18 | 113 | 6.4 | 24.1 | 0.00 | 0.28 | 0.28 | 36 | 1019.0 |
| 20260505215002 | 19 | 165 | 3.2 | 24.1 | 0.00 | 0.28 | 0.28 | 34 | 1019.0 |
| 20260505214503 | 19 | 212 | 3.2 | 14.5 | 0.00 | 0.28 | 0.28 | 37 | 1019.1 |
| 20260505214003 | 19 | 169 | 8.0 | 22.5 | 0.00 | 0.28 | 0.28 | 35 | 1019.1 |
| 20260505213502 | 19 | 227 | 11.3 | 25.7 | 0.00 | 0.28 | 0.28 | 36 | 1019.4 |
| 20260505213002 | 19 | 252 | 11.3 | 33.8 | 0.00 | 0.28 | 0.28 | 37 | 1019.6 |
| 20260505212502 | 17 | 212 | 22.5 | 33.8 | 0.00 | 0.28 | 0.28 | 38 | 1019.7 |
| 20260505212002 | 17 | 243 | 19.3 | 25.7 | 0.00 | 0.28 | 0.28 | 41 | 1019.6 |
| 20260505211001 | 18 | 207 | 17.7 | 19.3 | 0.00 | 0.28 | 0.28 | 40 | 1019.7 |
| 20260505210005 | 18 | 229 | 19.3 | 25.7 | 0.00 | 0.28 | 0.28 | 40 | 1019.9 |
| 20260505205502 | 19 | 243 | 9.7 | 24.1 | 0.00 | 0.28 | 0.28 | 38 | 1020.1 |
| 20260505205002 | 18 | 265 | 16.1 | 24.1 | 0.00 | 0.28 | 0.28 | 40 | 1020.2 |
| 20260505204002 | 18 | 215 | 16.1 | 33.8 | 0.00 | 0.28 | 0.28 | 41 | 1020.1 |
| 20260505203502 | 18 | 227 | 11.3 | 33.8 | 0.00 | 0.28 | 0.28 | 41 | 1020.2 |
| 20260505203003 | 18 | 225 | 11.3 | 30.6 | 0.00 | 0.28 | 0.28 | 41 | 1020.3 |
| 20260505202501 | 18 | 198 | 16.1 | 35.4 | 0.00 | 0.28 | 0.28 | 40 | 1020.3 |
| 20260505202014 | 19 | 196 | 14.5 | 35.4 | 0.00 | 0.28 | 0.28 | 40 | 1020.4 |
| 20260505201510 | 18 | 321 | 11.3 | 32.2 | 0.00 | 0.28 | 0.28 | 41 | 1020.3 |
| 20260505200502 | 18 | 197 | 22.5 | 37.0 | 0.00 | 0.28 | 0.28 | 42 | 1020.6 |
| 20260505200004 | 17 | 217 | 8.0 | 37.0 | 0.00 | 0.28 | 0.28 | 41 | 1020.5 |
| 20260505195502 | 18 | 232 | 9.7 | 32.2 | 0.00 | 0.28 | 0.28 | 42 | 1020.7 |
| 20260505195000 | 18 | 187 | 25.7 | 32.2 | 0.00 | 0.28 | 0.28 | 44 | 1020.6 |
| 20260505194002 | 18 | 292 | 9.7 | 46.7 | 0.00 | 0.28 | 0.28 | 43 | 1020.7 |
| 20260505193501 | 17 | 150 | 14.5 | 46.7 | 0.00 | 0.28 | 0.28 | 47 | 1020.8 |
| 20260505193001 | 17 | 190 | 12.9 | 33.8 | 0.00 | 0.28 | 0.28 | 47 | 1020.8 |
| 20260505192002 | 17 | 189 | 20.9 | 41.8 | 0.00 | 0.28 | 0.28 | 47 | 1020.9 |
| 20260505191001 | 17 | 200 | 14.5 | 29.0 | 0.00 | 0.28 | 0.28 | 49 | 1021.1 |
| 20260505190502 | 17 | 237 | 11.3 | 41.8 | 0.00 | 0.28 | 0.28 | 47 | 1021.1 |
| 20260505190004 | 17 | 211 | 12.9 | 41.8 | 0.00 | 0.28 | 0.28 | 47 | 1021.2 |
| 20260505185501 | 17 | 257 | 17.7 | 37.0 | 0.00 | 0.28 | 0.28 | 46 | 1021.2 |
| 20260505184001 | 16 | 270 | 11.3 | 30.6 | 0.00 | 0.28 | 0.28 | 51 | 1021.5 |
| 20260505183501 | 16 | 221 | 8.0 | 29.0 | 0.00 | 0.28 | 0.28 | 51 | 1021.6 |
| 20260505183002 | 16 | 205 | 14.5 | 25.7 | 0.00 | 0.28 | 0.28 | 52 | 1021.3 |
| 20260505182502 | 16 | 219 | 24.1 | 32.2 | 0.00 | 0.28 | 0.28 | 51 | 1021.5 |
| 20260505182002 | 16 | 242 | 9.7 | 33.8 | 0.00 | 0.28 | 0.28 | 51 | 1021.6 |
| 20260505181502 | 16 | 236 | 14.5 | 33.8 | 0.00 | 0.28 | 0.28 | 51 | 1021.4 |
| 20260505181002 | 16 | 254 | 20.9 | 35.4 | 0.00 | 0.28 | 0.28 | 52 | 1021.5 |
| 20260505180502 | 16 | 253 | 17.7 | 30.6 | 0.00 | 0.28 | 0.28 | 53 | 1021.6 |
| 20260505180004 | 16 | 205 | 8.0 | 32.2 | 0.00 | 0.28 | 0.28 | 53 | 1021.6 |
| 20260505175002 | 16 | 215 | 6.4 | 30.6 | 0.00 | 0.28 | 0.28 | 54 | 1021.6 |
| 20260505174501 | 16 | 223 | 14.5 | 40.2 | 0.00 | 0.28 | 0.28 | 53 | 1021.6 |
| 20260505174002 | 16 | 195 | 12.9 | 40.2 | 0.00 | 0.28 | 0.28 | 53 | 1021.8 |
| 20260505173503 | 16 | 236 | 9.7 | 40.2 | 0.00 | 0.28 | 0.28 | 56 | 1021.6 |
| 20260505173002 | 16 | 193 | 14.5 | 40.2 | 0.00 | 0.28 | 0.28 | 56 | 1021.6 |
| 20260505172502 | 16 | 248 | 25.7 | 33.8 | 0.00 | 0.28 | 0.28 | 58 | 1021.6 |
| 20260505172002 | 15 | 210 | 24.1 | 33.8 | 0.00 | 0.28 | 0.28 | 57 | 1021.5 |
| 20260505171501 | 16 | 248 | 12.9 | 29.0 | 0.00 | 0.28 | 0.28 | 56 | 1021.7 |
| 20260505170501 | 15 | 90 | 6.4 | 25.7 | 0.00 | 0.28 | 0.28 | 58 | 1021.5 |
| 20260505170005 | 15 | 248 | 14.5 | 35.4 | 0.00 | 0.28 | 0.28 | 58 | 1021.5 |
| 20260505165502 | 15 | 245 | 6.4 | 35.4 | 0.00 | 0.28 | 0.28 | 62 | 1021.3 |
| 20260505164501 | 15 | 199 | 8.0 | 37.0 | 0.00 | 0.28 | 0.28 | 62 | 1021.6 |
| 20260505164002 | 14 | 319 | 9.7 | 37.0 | 0.00 | 0.28 | 0.28 | 61 | 1021.7 |
| 20260505163507 | 14 | 159 | 9.7 | 35.4 | 0.00 | 0.28 | 0.28 | 62 | 1021.6 |
| 20260505163003 | 13 | 227 | 30.6 | 35.4 | 0.03 | 0.28 | 0.28 | 62 | 1021.6 |
| 20260505162501 | 13 | 224 | 29.0 | 29.0 | 0.03 | 0.28 | 0.28 | 63 | 1021.8 |
| 20260505162002 | 13 | 227 | 17.7 | 33.8 | 0.03 | 0.28 | 0.28 | 65 | 1021.4 |
| 20260505160501 | 12 | 277 | 11.3 | 20.9 | 0.03 | 0.28 | 0.28 | 69 | 1021.4 |
| 20260505153002 | 11 | 264 | 8.0 | 24.1 | 0.08 | 0.25 | 0.25 | 77 | 1021.2 |
| 20260505152502 | 11 | 213 | 9.7 | 22.5 | 0.08 | 0.25 | 0.25 | 74 | 1021.0 |
| 20260505152001 | 12 | 190 | 11.3 | 20.9 | 0.08 | 0.25 | 0.25 | 74 | 1020.9 |
| 20260505151503 | 11 | 245 | 11.3 | 22.5 | 0.10 | 0.25 | 0.25 | 74 | 1020.9 |
| 20260505151000 | 11 | 221 | 12.9 | 19.3 | 0.13 | 0.25 | 0.25 | 78 | 1020.9 |
| 20260505150501 | 11 | 261 | 6.4 | 19.3 | 0.15 | 0.25 | 0.25 | 78 | 1020.8 |
| 20260505140501 | 11 | 209 | 4.8 | 17.7 | 0.10 | 0.10 | 0.10 | 76 | 1020.6 |
| 20260505125001 | 10 | 273 | 0.0 | 6.4 | 0.00 | 0.00 | 0.00 | 83 | 1020.6 |
| 20260505124501 | 10 | 340 | 0.0 | 6.4 | 0.00 | 0.00 | 0.00 | 82 | 1020.7 |
| 20260505124001 | 10 | 323 | 0.0 | 6.4 | 0.00 | 0.00 | 0.00 | 80 | 1020.6 |
| 20260505123501 | 10 | 5 | 1.6 | 6.4 | 0.00 | 0.00 | 0.00 | 77 | 1020.5 |
| 20260505123000 | 10 | 5 | 3.2 | 11.3 | 0.00 | 0.00 | 0.00 | 74 | 1020.5 |
| 20260505122000 | 12 | 105 | 6.4 | 17.7 | 0.00 | 0.00 | 0.00 | 65 | 1020.8 |
| 20260505121500 | 12 | 88 | 16.1 | 17.7 | 0.00 | 0.00 | 0.00 | 61 | 1020.5 |
| 20260505121001 | 12 | 67 | 3.2 | 14.5 | 0.00 | 0.00 | 0.00 | 56 | 1020.3 |
| 20260505120501 | 12 | 125 | 3.2 | 9.7 | 0.00 | 0.00 | 0.00 | 52 | 1020.2 |
| 20260505115501 | 12 | 211 | 8.0 | 14.5 | 0.00 | 0.00 | 0.00 | 51 | 1020.2 |
| 20260505115001 | 12 | 205 | 4.8 | 16.1 | 0.00 | 0.00 | 0.00 | 53 | 1020.2 |
| 20260505114500 | 12 | 277 | 11.3 | 17.7 | 0.00 | 0.00 | 0.00 | 56 | 1020.2 |
| 20260505114001 | 12 | 267 | 8.0 | 24.1 | 0.00 | 0.00 | 0.00 | 59 | 1020.1 |
| 20260505113000 | 12 | 254 | 6.4 | 17.7 | 0.00 | 0.00 | 0.00 | 60 | 1020.9 |
| 20260505112001 | 12 | 258 | 6.4 | 20.9 | 0.00 | 0.00 | 0.00 | 59 | 1021.1 |
| 20260505111500 | 12 | 273 | 14.5 | 17.7 | 0.00 | 0.00 | 0.00 | 59 | 1021.4 |
| 20260505111001 | 12 | 284 | 9.7 | 17.7 | 0.00 | 0.00 | 0.00 | 61 | 1021.4 |
| 20260505110501 | 12 | 236 | 8.0 | 20.9 | 0.00 | 0.00 | 0.00 | 62 | 1021.4 |
| 20260505101001 | 12 | 252 | 25.7 | 25.7 | 0.00 | 0.00 | 0.00 | 62 | 1021.2 |
| 20260505100459 | 12 | 30 | 12.9 | 20.9 | 0.00 | 0.00 | 0.00 | 62 | 1021.4 |
| 20260505100003 | 12 | 297 | 11.3 | 22.5 | 0.00 | 0.00 | 0.00 | 61 | 1021.4 |
| 20260505095501 | 12 | 331 | 3.2 | 22.5 | 0.00 | 0.00 | 0.00 | 61 | 1021.5 |
| 20260505095001 | 12 | 243 | 1.6 | 20.9 | 0.00 | 0.00 | 0.00 | 60 | 1021.4 |
| 20260505094501 | 12 | 298 | 6.4 | 20.9 | 0.00 | 0.00 | 0.00 | 60 | 1021.4 |
| 20260505093959 | 12 | 334 | 6.4 | 20.9 | 0.00 | 0.00 | 0.00 | 58 | 1021.6 |
| 20260505093500 | 12 | 316 | 1.6 | 25.7 | 0.00 | 0.00 | 0.00 | 56 | 1021.6 |
| 20260505093000 | 12 | 242 | 11.3 | 25.7 | 0.00 | 0.00 | 0.00 | 58 | 1021.5 |
| 20260505092500 | 12 | 279 | 16.1 | 24.1 | 0.00 | 0.00 | 0.00 | 59 | 1021.5 |
| 20260505091001 | 12 | 297 | 6.4 | 22.5 | 0.00 | 0.00 | 0.00 | 60 | 1021.9 |
| 20260505090501 | 12 | 302 | 11.3 | 22.5 | 0.00 | 0.00 | 0.00 | 59 | 1021.6 |
| 20260505090003 | 12 | 24 | 8.0 | 33.8 | 0.00 | 0.00 | 0.00 | 57 | 1021.8 |
| 20260505085500 | 13 | 242 | 6.4 | 33.8 | 0.00 | 0.00 | 0.00 | 53 | 1022.3 |
| 20260505084959 | 13 | 235 | 19.3 | 22.5 | 0.00 | 0.00 | 0.00 | 52 | 1022.3 |
| 20260505084501 | 13 | 150 | 6.4 | 33.8 | 0.00 | 0.00 | 0.00 | 52 | 1021.9 |
| 20260505084000 | 12 | 253 | 9.7 | 33.8 | 0.00 | 0.00 | 0.00 | 53 | 1021.6 |
| 20260505083500 | 12 | 315 | 9.7 | 32.2 | 0.00 | 0.00 | 0.00 | 53 | 1021.6 |
| 20260505083000 | 12 | 304 | 8.0 | 32.2 | 0.00 | 0.00 | 0.00 | 53 | 1021.9 |
| 20260505082500 | 13 | 337 | 6.4 | 20.9 | 0.00 | 0.00 | 0.00 | 53 | 1021.9 |
| 20260505082000 | 13 | 255 | 6.4 | 20.9 | 0.00 | 0.00 | 0.00 | 52 | 1022.2 |